Year,Month,Day,Hour,Minute,Value (Times are PST for temperature in C)
2022,04,16,00,00,1.30
2022,04,16,00,01,1.30
2022,04,16,00,02,1.30
2022,04,16,00,03,1.20
2022,04,16,00,04,1.20
2022,04,16,00,05,1.20
2022,04,16,00,06,1.20
2022,04,16,00,07,1.20
2022,04,16,00,08,1.20
2022,04,16,00,09,1.20
2022,04,16,00,10,1.20
2022,04,16,00,11,1.20
2022,04,16,00,12,1.20
2022,04,16,00,13,1.30
2022,04,16,00,14,1.30
2022,04,16,00,15,1.30
2022,04,16,00,16,1.30
2022,04,16,00,17,1.30
2022,04,16,00,18,1.30
2022,04,16,00,19,1.30
2022,04,16,00,20,1.30
2022,04,16,00,21,1.30
2022,04,16,00,22,1.30
2022,04,16,00,23,1.30
2022,04,16,00,24,1.30
2022,04,16,00,25,1.30
2022,04,16,00,26,1.20
2022,04,16,00,27,1.20
2022,04,16,00,28,1.20
2022,04,16,00,29,1.20
2022,04,16,00,30,1.20
2022,04,16,00,31,1.20
2022,04,16,00,32,1.20
2022,04,16,00,33,1.20
2022,04,16,00,34,1.20
2022,04,16,00,35,1.20
2022,04,16,00,36,1.20
2022,04,16,00,37,1.10
2022,04,16,00,38,1.10
2022,04,16,00,39,1.10
2022,04,16,00,40,1.10
2022,04,16,00,41,1.10
2022,04,16,00,42,1.10
2022,04,16,00,43,1.10
2022,04,16,00,44,1.10
2022,04,16,00,45,1.10
2022,04,16,00,46,1.00
2022,04,16,00,47,1.00
2022,04,16,00,48,1.00
2022,04,16,00,49,1.00
2022,04,16,00,50,1.00
2022,04,16,00,51,1.00
2022,04,16,00,52,0.90
2022,04,16,00,53,0.90
2022,04,16,00,54,0.90
2022,04,16,00,55,0.90
2022,04,16,00,56,0.90
2022,04,16,00,57,1.00
2022,04,16,00,58,1.00
2022,04,16,00,59,1.00
2022,04,16,01,00,1.00
2022,04,16,01,01,0.90
2022,04,16,01,02,0.90
2022,04,16,01,03,0.90
2022,04,16,01,04,0.90
2022,04,16,01,05,0.90
2022,04,16,01,06,0.90
2022,04,16,01,07,0.80
2022,04,16,01,08,0.80
2022,04,16,01,09,0.80
2022,04,16,01,10,0.80
2022,04,16,01,11,0.80
2022,04,16,01,12,0.80
2022,04,16,01,13,0.80
2022,04,16,01,14,0.80
2022,04,16,01,15,0.80
2022,04,16,01,16,0.80
2022,04,16,01,17,0.80
2022,04,16,01,18,0.80
2022,04,16,01,19,0.80
2022,04,16,01,20,0.80
2022,04,16,01,21,0.80
2022,04,16,01,22,0.80
2022,04,16,01,23,0.80
2022,04,16,01,24,0.80
2022,04,16,01,25,0.80
2022,04,16,01,26,0.80
2022,04,16,01,27,0.80
2022,04,16,01,28,0.70
2022,04,16,01,29,0.70
2022,04,16,01,30,0.70
2022,04,16,01,31,0.70
2022,04,16,01,32,0.70
2022,04,16,01,33,0.70
2022,04,16,01,34,0.70
2022,04,16,01,35,0.70
2022,04,16,01,36,0.70
2022,04,16,01,37,0.70
2022,04,16,01,38,0.70
2022,04,16,01,39,0.70
2022,04,16,01,40,0.60
2022,04,16,01,41,0.60
2022,04,16,01,42,0.60
2022,04,16,01,43,0.60
2022,04,16,01,44,0.60
2022,04,16,01,45,0.60
2022,04,16,01,46,0.60
2022,04,16,01,47,0.60
2022,04,16,01,48,0.60
2022,04,16,01,49,0.60
2022,04,16,01,50,0.60
2022,04,16,01,51,0.60
2022,04,16,01,52,0.60
2022,04,16,01,53,0.60
2022,04,16,01,54,0.60
2022,04,16,01,55,0.60
2022,04,16,01,56,0.60
2022,04,16,01,57,0.60
2022,04,16,01,58,0.60
2022,04,16,01,59,0.60
2022,04,16,02,00,0.60
2022,04,16,02,01,0.60
2022,04,16,02,02,0.60
2022,04,16,02,03,0.60
2022,04,16,02,04,0.60
2022,04,16,02,05,0.60
2022,04,16,02,06,0.60
2022,04,16,02,07,0.60
2022,04,16,02,08,0.60
2022,04,16,02,09,0.60
2022,04,16,02,10,0.60
2022,04,16,02,11,0.60
2022,04,16,02,12,0.70
2022,04,16,02,13,0.70
2022,04,16,02,14,0.70
2022,04,16,02,15,0.70
2022,04,16,02,16,0.70
2022,04,16,02,17,0.70
2022,04,16,02,18,0.70
2022,04,16,02,19,0.70
2022,04,16,02,20,0.70
2022,04,16,02,21,0.70
2022,04,16,02,22,0.70
2022,04,16,02,23,0.70
2022,04,16,02,24,0.80
2022,04,16,02,25,0.80
2022,04,16,02,26,0.80
2022,04,16,02,27,0.90
2022,04,16,02,28,0.90
2022,04,16,02,29,0.90
2022,04,16,02,30,0.90
2022,04,16,02,31,0.80
2022,04,16,02,32,0.80
2022,04,16,02,33,0.80
2022,04,16,02,34,0.80
2022,04,16,02,35,0.80
2022,04,16,02,36,0.80
2022,04,16,02,37,0.80
2022,04,16,02,38,0.80
2022,04,16,02,39,0.80
2022,04,16,02,40,0.80
2022,04,16,02,41,0.80
2022,04,16,02,42,0.80
2022,04,16,02,43,0.80
2022,04,16,02,44,0.80
2022,04,16,02,45,0.80
2022,04,16,02,46,0.80
2022,04,16,02,47,0.80
2022,04,16,02,48,0.80
2022,04,16,02,49,0.80
2022,04,16,02,50,0.80
2022,04,16,02,51,0.70
2022,04,16,02,52,0.70
2022,04,16,02,53,0.70
2022,04,16,02,54,0.70
2022,04,16,02,55,0.70
2022,04,16,02,56,0.70
2022,04,16,02,57,0.70
2022,04,16,02,58,0.70
2022,04,16,02,59,0.80
2022,04,16,03,00,0.80
2022,04,16,03,01,0.80
2022,04,16,03,02,0.80
2022,04,16,03,03,0.80
2022,04,16,03,04,0.80
2022,04,16,03,05,0.80
2022,04,16,03,06,0.80
2022,04,16,03,07,0.80
2022,04,16,03,08,0.90
2022,04,16,03,09,0.90
2022,04,16,03,10,0.80
2022,04,16,03,11,0.80
2022,04,16,03,12,0.80
2022,04,16,03,13,0.80
2022,04,16,03,14,0.80
2022,04,16,03,15,0.80
2022,04,16,03,16,0.80
2022,04,16,03,17,0.80
2022,04,16,03,18,0.80
2022,04,16,03,19,0.80
2022,04,16,03,20,0.80
2022,04,16,03,21,0.80
2022,04,16,03,22,0.90
2022,04,16,03,23,0.90
2022,04,16,03,24,1.00
2022,04,16,03,25,1.00
2022,04,16,03,26,1.00
2022,04,16,03,27,1.00
2022,04,16,03,28,1.10
2022,04,16,03,29,1.20
2022,04,16,03,30,1.20
2022,04,16,03,31,1.20
2022,04,16,03,32,1.20
2022,04,16,03,33,1.30
2022,04,16,03,34,1.30
2022,04,16,03,35,1.40
2022,04,16,03,36,1.50
2022,04,16,03,37,1.50
2022,04,16,03,38,1.50
2022,04,16,03,39,1.50
2022,04,16,03,40,1.50
2022,04,16,03,41,1.50
2022,04,16,03,42,1.40
2022,04,16,03,43,1.40
2022,04,16,03,44,1.40
2022,04,16,03,45,1.40
2022,04,16,03,46,1.40
2022,04,16,03,47,1.40
2022,04,16,03,48,1.30
2022,04,16,03,49,1.30
2022,04,16,03,50,1.30
2022,04,16,03,51,1.30
2022,04,16,03,52,1.30
2022,04,16,03,53,1.30
2022,04,16,03,54,1.30
2022,04,16,03,55,1.30
2022,04,16,03,56,1.30
2022,04,16,03,57,1.30
2022,04,16,03,58,1.20
2022,04,16,03,59,1.20
2022,04,16,04,00,1.20
2022,04,16,04,01,1.20
2022,04,16,04,02,1.20
2022,04,16,04,03,1.20
2022,04,16,04,04,1.10
2022,04,16,04,05,1.10
2022,04,16,04,06,1.10
2022,04,16,04,07,1.10
2022,04,16,04,08,1.10
2022,04,16,04,09,1.10
2022,04,16,04,10,1.20
2022,04,16,04,11,1.20
2022,04,16,04,12,1.30
2022,04,16,04,13,1.40
2022,04,16,04,14,1.40
2022,04,16,04,15,1.50
2022,04,16,04,16,1.60
2022,04,16,04,17,1.70
2022,04,16,04,18,1.70
2022,04,16,04,19,1.70
2022,04,16,04,20,1.80
2022,04,16,04,21,1.80
2022,04,16,04,22,1.80
2022,04,16,04,23,1.90
2022,04,16,04,24,1.80
2022,04,16,04,25,1.80
2022,04,16,04,26,1.90
2022,04,16,04,27,1.90
2022,04,16,04,28,1.90
2022,04,16,04,29,1.90
2022,04,16,04,30,1.90
2022,04,16,04,31,2.00
2022,04,16,04,32,2.00
2022,04,16,04,33,2.00
2022,04,16,04,34,2.00
2022,04,16,04,35,2.00
2022,04,16,04,36,2.10
2022,04,16,04,37,2.10
2022,04,16,04,38,2.10
2022,04,16,04,39,2.10
2022,04,16,04,40,2.10
2022,04,16,04,41,2.10
2022,04,16,04,42,2.10
2022,04,16,04,43,2.10
2022,04,16,04,44,2.20
2022,04,16,04,45,2.20
2022,04,16,04,46,2.20
2022,04,16,04,47,2.20
2022,04,16,04,48,2.30
2022,04,16,04,49,2.30
2022,04,16,04,50,2.30
2022,04,16,04,51,2.30
2022,04,16,04,52,2.30
2022,04,16,04,53,2.30
2022,04,16,04,54,2.30
2022,04,16,04,55,2.30
2022,04,16,04,56,2.30
2022,04,16,04,57,2.30
2022,04,16,04,58,2.30
2022,04,16,04,59,2.30
2022,04,16,05,00,2.30
2022,04,16,05,01,2.30
2022,04,16,05,02,2.30
2022,04,16,05,03,2.30
2022,04,16,05,04,2.30
2022,04,16,05,05,2.30
2022,04,16,05,06,2.30
2022,04,16,05,07,2.40
2022,04,16,05,08,2.50
2022,04,16,05,09,2.50
2022,04,16,05,10,2.60
2022,04,16,05,11,2.70
2022,04,16,05,12,2.70
2022,04,16,05,13,2.80
2022,04,16,05,14,2.90
2022,04,16,05,15,2.90
2022,04,16,05,16,2.90
2022,04,16,05,17,2.90
2022,04,16,05,18,3.00
2022,04,16,05,19,3.00
2022,04,16,05,20,3.00
2022,04,16,05,21,3.00
2022,04,16,05,22,3.00
2022,04,16,05,23,3.10
2022,04,16,05,24,3.10
2022,04,16,05,25,3.10
2022,04,16,05,26,3.10
2022,04,16,05,27,3.10
2022,04,16,05,28,3.10
2022,04,16,05,29,3.10
2022,04,16,05,30,3.10
2022,04,16,05,31,3.20
2022,04,16,05,32,3.20
2022,04,16,05,33,3.20
2022,04,16,05,34,3.20
2022,04,16,05,35,3.20
2022,04,16,05,36,3.20
2022,04,16,05,37,3.20
2022,04,16,05,38,3.20
2022,04,16,05,39,3.20
2022,04,16,05,40,3.20
2022,04,16,05,41,3.20
2022,04,16,05,42,3.30
2022,04,16,05,43,3.30
2022,04,16,05,44,3.30
2022,04,16,05,45,3.30
2022,04,16,05,46,3.30
2022,04,16,05,47,3.30
2022,04,16,05,48,3.30
2022,04,16,05,49,3.40
2022,04,16,05,50,3.40
2022,04,16,05,51,3.40
2022,04,16,05,52,3.50
2022,04,16,05,53,3.50
2022,04,16,05,54,3.50
2022,04,16,05,55,3.60
2022,04,16,05,56,3.60
2022,04,16,05,57,3.60
2022,04,16,05,58,3.60
2022,04,16,05,59,3.70
2022,04,16,06,00,3.70
2022,04,16,06,01,3.70
2022,04,16,06,02,3.70
2022,04,16,06,03,3.70
2022,04,16,06,04,3.70
2022,04,16,06,05,3.70
2022,04,16,06,06,3.70
2022,04,16,06,07,3.70
2022,04,16,06,08,3.70
2022,04,16,06,09,3.70
2022,04,16,06,10,3.70
2022,04,16,06,11,3.70
2022,04,16,06,12,3.70
2022,04,16,06,13,3.70
2022,04,16,06,14,3.70
2022,04,16,06,15,3.70
2022,04,16,06,16,3.70
2022,04,16,06,17,3.70
2022,04,16,06,18,3.70
2022,04,16,06,19,3.70
2022,04,16,06,20,3.70
2022,04,16,06,21,3.70
2022,04,16,06,22,3.80
2022,04,16,06,23,3.80
2022,04,16,06,24,3.80
2022,04,16,06,25,3.80
2022,04,16,06,26,3.80
2022,04,16,06,27,3.80
2022,04,16,06,28,3.80
2022,04,16,06,29,3.80
2022,04,16,06,30,3.80
2022,04,16,06,31,3.80
2022,04,16,06,32,3.90
2022,04,16,06,33,3.90
2022,04,16,06,34,3.90
2022,04,16,06,35,3.90
2022,04,16,06,36,3.90
2022,04,16,06,37,3.90
2022,04,16,06,38,3.90
2022,04,16,06,39,3.90
2022,04,16,06,40,3.90
2022,04,16,06,41,3.90
2022,04,16,06,42,3.90
2022,04,16,06,43,3.90
2022,04,16,06,44,3.90
2022,04,16,06,45,3.90
2022,04,16,06,46,3.90
2022,04,16,06,47,3.90
2022,04,16,06,48,3.90
2022,04,16,06,49,3.90
2022,04,16,06,50,4.00
2022,04,16,06,51,4.00
2022,04,16,06,52,4.00
2022,04,16,06,53,4.00
2022,04,16,06,54,4.00
2022,04,16,06,55,3.90
2022,04,16,06,56,3.90
2022,04,16,06,57,3.90
2022,04,16,06,58,3.90
2022,04,16,06,59,3.90
2022,04,16,07,00,3.90
2022,04,16,07,01,3.90
2022,04,16,07,02,3.90
2022,04,16,07,03,3.90
2022,04,16,07,04,3.90
2022,04,16,07,05,3.90
2022,04,16,11,02,7.10
2022,04,16,11,03,7.10
2022,04,16,11,04,7.10
2022,04,16,11,05,7.20
2022,04,16,11,06,7.20
2022,04,16,11,07,7.20
2022,04,16,11,08,7.20
2022,04,16,11,09,7.30
2022,04,16,11,10,7.30
2022,04,16,11,11,7.30
2022,04,16,11,12,7.30
2022,04,16,11,13,7.30
2022,04,16,11,14,7.40
2022,04,16,11,15,7.40
2022,04,16,11,16,7.40
2022,04,16,11,17,7.40
2022,04,16,11,18,7.40
2022,04,16,11,19,7.40
2022,04,16,11,20,7.40
2022,04,16,11,21,7.40
2022,04,16,11,22,7.40
2022,04,16,11,23,7.40
2022,04,16,11,24,7.40
2022,04,16,11,25,7.30
2022,04,16,11,26,7.30
2022,04,16,11,27,7.30
2022,04,16,11,28,7.30
2022,04,16,11,29,7.30
2022,04,16,11,30,7.30
2022,04,16,11,31,7.30
2022,04,16,11,32,7.30
2022,04,16,11,33,7.30
2022,04,16,11,34,7.40
2022,04,16,11,35,7.40
2022,04,16,11,36,7.40
2022,04,16,11,37,7.40
2022,04,16,11,38,7.40
2022,04,16,11,39,7.40
2022,04,16,11,40,7.40
2022,04,16,11,41,7.40
2022,04,16,11,42,7.40
2022,04,16,11,43,7.30
2022,04,16,11,44,7.30
2022,04,16,11,45,7.30
2022,04,16,11,46,7.30
2022,04,16,11,47,7.40
2022,04,16,11,48,7.40
2022,04,16,11,49,7.40
2022,04,16,11,50,7.40
2022,04,16,11,51,7.40
2022,04,16,11,52,7.40
2022,04,16,11,53,7.50
2022,04,16,11,54,7.50
2022,04,16,11,55,7.50
2022,04,16,11,56,7.50
2022,04,16,11,57,7.50
2022,04,16,11,58,7.50
2022,04,16,11,59,7.60
2022,04,16,12,00,7.60
2022,04,16,12,01,7.70
2022,04,16,12,02,7.70
2022,04,16,12,03,7.80
2022,04,16,12,04,7.80
2022,04,16,12,05,7.80
2022,04,16,12,06,7.80
2022,04,16,12,07,7.80
2022,04,16,12,08,7.90
2022,04,16,12,09,7.80
2022,04,16,12,10,7.80
2022,04,16,12,11,7.80
2022,04,16,12,12,7.80
2022,04,16,12,13,7.80
2022,04,16,12,14,7.80
2022,04,16,12,15,7.80
2022,04,16,12,16,7.80
2022,04,16,12,17,7.90
2022,04,16,12,18,7.90
2022,04,16,12,19,7.90
2022,04,16,12,20,7.90
2022,04,16,12,21,7.90
2022,04,16,12,22,7.90
2022,04,16,12,23,7.90
2022,04,16,12,24,7.90
2022,04,16,12,25,7.90
2022,04,16,12,26,7.90
2022,04,16,12,27,7.90
2022,04,16,12,28,7.90
2022,04,16,12,29,7.90
2022,04,16,12,30,7.90
2022,04,16,12,31,7.90
2022,04,16,12,32,7.90
2022,04,16,12,33,7.90
2022,04,16,12,34,7.90
2022,04,16,12,35,7.90
2022,04,16,12,36,7.90
2022,04,16,12,37,7.90
2022,04,16,12,38,7.90
2022,04,16,12,39,7.90
2022,04,16,12,40,7.90
2022,04,16,12,41,7.90
2022,04,16,12,42,7.90
2022,04,16,12,43,7.90
2022,04,16,12,44,7.90
2022,04,16,12,45,7.90
2022,04,16,12,46,8.00
2022,04,16,12,47,8.00
2022,04,16,12,48,8.10
2022,04,16,12,49,8.10
2022,04,16,12,50,8.10
2022,04,16,12,51,8.10
2022,04,16,12,52,8.10
2022,04,16,12,53,8.20
2022,04,16,12,54,8.20
2022,04,16,12,55,8.20
2022,04,16,12,56,8.20
2022,04,16,12,57,8.20
2022,04,16,12,58,8.20
2022,04,16,12,59,8.10
2022,04,16,13,00,8.10
2022,04,16,13,01,8.10
2022,04,16,13,02,8.10
2022,04,16,13,03,8.10
2022,04,16,13,04,8.10
2022,04,16,13,05,8.10
2022,04,16,13,06,8.10
2022,04,16,13,07,8.00
2022,04,16,13,08,8.00
2022,04,16,13,09,8.00
2022,04,16,13,10,7.90
2022,04,16,13,11,7.90
2022,04,16,13,12,7.80
2022,04,16,13,13,7.80
2022,04,16,13,14,7.70
2022,04,16,13,15,7.60
2022,04,16,13,16,7.50
2022,04,16,13,17,7.40
2022,04,16,13,18,7.30
2022,04,16,13,19,7.20
2022,04,16,13,20,7.10
2022,04,16,13,21,7.00
2022,04,16,13,22,7.00
2022,04,16,13,23,6.80
2022,04,16,13,24,6.80
2022,04,16,13,25,6.70
2022,04,16,13,26,6.60
2022,04,16,13,27,6.60
2022,04,16,13,28,6.60
2022,04,16,13,29,6.60
2022,04,16,13,30,6.60
2022,04,16,13,31,6.60
2022,04,16,13,32,6.60
2022,04,16,13,33,6.50
2022,04,16,13,34,6.50
2022,04,16,13,35,6.40
2022,04,16,13,36,6.40
2022,04,16,13,37,6.40
2022,04,16,13,38,6.40
2022,04,16,13,39,6.30
2022,04,16,13,40,6.30
2022,04,16,13,41,6.30
2022,04,16,13,42,6.30
2022,04,16,13,43,6.30
2022,04,16,13,44,6.30
2022,04,16,13,45,6.30
2022,04,16,13,46,6.30
2022,04,16,13,47,6.20
2022,04,16,13,48,6.20
2022,04,16,13,49,6.20
2022,04,16,13,50,6.20
2022,04,16,13,51,6.20
2022,04,16,13,52,6.20
2022,04,16,13,53,6.20
2022,04,16,13,54,6.20
2022,04,16,13,55,6.20
2022,04,16,13,56,6.20
2022,04,16,13,57,6.30
2022,04,16,13,58,6.30
2022,04,16,13,59,6.30
2022,04,16,14,00,6.20
2022,04,16,14,01,6.10
2022,04,16,14,02,5.80
2022,04,16,14,03,5.60
2022,04,16,14,04,5.40
2022,04,16,14,05,5.20
2022,04,16,14,06,5.10
2022,04,16,14,07,4.90
2022,04,16,14,08,4.80
2022,04,16,14,09,4.70
2022,04,16,14,10,4.50
2022,04,16,14,11,4.40
2022,04,16,14,12,4.40
2022,04,16,14,13,4.30
2022,04,16,14,14,4.20
2022,04,16,14,15,4.20
2022,04,16,14,16,4.10
2022,04,16,14,17,4.10
2022,04,16,14,18,4.00
2022,04,16,14,19,3.90
2022,04,16,14,20,3.80
2022,04,16,14,21,3.70
2022,04,16,14,22,3.60
2022,04,16,14,23,3.50
2022,04,16,14,24,3.40
2022,04,16,14,25,3.40
2022,04,16,14,26,3.40
2022,04,16,14,27,3.40
2022,04,16,14,28,3.30
2022,04,16,14,29,3.30
2022,04,16,14,30,3.30
2022,04,16,14,31,3.30
2022,04,16,14,32,3.30
2022,04,16,14,33,3.30
2022,04,16,14,34,3.30
2022,04,16,14,35,3.40
2022,04,16,14,36,3.40
2022,04,16,14,37,3.40
2022,04,16,14,38,3.40
2022,04,16,14,39,3.50
2022,04,16,14,40,3.60
2022,04,16,14,41,3.60
2022,04,16,14,42,3.70
2022,04,16,14,43,3.70
2022,04,16,14,44,3.70
2022,04,16,14,45,3.80
2022,04,16,14,46,3.80
2022,04,16,14,47,3.90
2022,04,16,14,48,3.90
2022,04,16,14,49,3.90
2022,04,16,14,50,3.90
2022,04,16,14,51,3.90
2022,04,16,14,52,3.90
2022,04,16,14,53,4.00
2022,04,16,14,54,4.00
2022,04,16,14,55,4.10
2022,04,16,14,56,4.10
2022,04,16,14,57,4.20
2022,04,16,14,58,4.20
2022,04,16,14,59,4.30
2022,04,16,15,00,4.30
2022,04,16,15,01,4.50
2022,04,16,15,02,4.60
2022,04,16,15,03,4.80
2022,04,16,15,04,4.90
2022,04,16,15,05,4.90
2022,04,16,15,06,5.00
2022,04,16,15,07,5.00
2022,04,16,15,08,5.00
2022,04,16,15,09,5.00
2022,04,16,15,10,5.00
2022,04,16,15,11,5.00
2022,04,16,15,12,5.00
2022,04,16,15,13,5.00
2022,04,16,15,14,5.00
2022,04,16,15,15,5.00
2022,04,16,15,16,5.00
2022,04,16,15,17,5.00
2022,04,16,15,18,5.00
2022,04,16,15,19,5.00
2022,04,16,15,20,5.00
2022,04,16,15,21,5.00
2022,04,16,15,22,5.00
2022,04,16,15,23,5.00
2022,04,16,15,24,5.00
2022,04,16,15,25,5.10
2022,04,16,15,26,5.10
2022,04,16,15,27,5.10
2022,04,16,15,28,5.10
2022,04,16,15,29,5.10
2022,04,16,15,30,5.10
2022,04,16,15,31,5.10
2022,04,16,15,32,5.10
2022,04,16,15,33,5.10
2022,04,16,15,34,5.10
2022,04,16,15,35,5.10
2022,04,16,15,36,5.00
2022,04,16,15,37,5.00
2022,04,16,15,38,5.00
2022,04,16,15,39,5.00
2022,04,16,15,40,4.90
2022,04,16,15,41,4.90
2022,04,16,15,42,4.90
2022,04,16,15,43,4.90
2022,04,16,15,44,4.90
2022,04,16,15,45,4.90
2022,04,16,15,46,5.00
2022,04,16,15,47,5.00
2022,04,16,15,48,5.00
2022,04,16,15,49,4.90
2022,04,16,15,50,4.90
2022,04,16,15,51,4.90
2022,04,16,15,52,4.90
2022,04,16,15,53,4.90
2022,04,16,15,54,4.90
2022,04,16,15,55,4.90
2022,04,16,15,56,4.90
2022,04,16,15,57,5.00
2022,04,16,15,58,4.90
2022,04,16,15,59,4.90
2022,04,16,16,00,5.00
2022,04,16,16,01,5.00
2022,04,16,16,02,5.00
2022,04,16,16,03,5.00
2022,04,16,16,04,5.00
2022,04,16,16,05,5.00
2022,04,16,16,06,5.10
2022,04,16,16,07,5.10
2022,04,16,16,08,5.10
2022,04,16,16,09,5.10
2022,04,16,16,10,5.10
2022,04,16,16,11,5.10
2022,04,16,16,12,5.10
2022,04,16,16,13,5.10
2022,04,16,16,14,5.10
2022,04,16,16,15,5.10
2022,04,16,16,16,5.20
2022,04,16,16,17,5.20
2022,04,16,16,18,5.20
2022,04,16,16,19,5.20
2022,04,16,16,20,5.20
2022,04,16,16,21,5.20
2022,04,16,16,22,5.20
2022,04,16,16,23,5.20
2022,04,16,16,24,5.20
2022,04,16,16,25,5.20
2022,04,16,16,26,5.30
2022,04,16,16,27,5.30
2022,04,16,16,28,5.30
2022,04,16,16,29,5.30
2022,04,16,16,30,5.40
2022,04,16,16,31,5.40
2022,04,16,16,32,5.40
2022,04,16,16,33,5.40
2022,04,16,16,34,5.40
2022,04,16,16,35,5.40
2022,04,16,16,36,5.50
2022,04,16,16,37,5.50
2022,04,16,16,38,5.60
2022,04,16,16,39,5.60
2022,04,16,16,40,5.70
2022,04,16,16,41,5.80
2022,04,16,16,42,5.80
2022,04,16,16,43,5.90
2022,04,16,16,44,6.00
2022,04,16,16,45,6.00
2022,04,16,16,46,6.00
2022,04,16,16,47,6.00
2022,04,16,16,48,6.00
2022,04,16,16,49,6.10
2022,04,16,16,50,6.10
2022,04,16,16,51,6.10
2022,04,16,16,52,6.10
2022,04,16,16,53,6.20
2022,04,16,16,54,6.20
2022,04,16,16,55,6.20
2022,04,16,16,56,6.20
2022,04,16,16,57,6.20
2022,04,16,16,58,6.20
2022,04,16,16,59,6.20
2022,04,16,17,00,6.20
2022,04,16,17,01,6.20
2022,04,16,17,02,6.20
2022,04,16,17,03,6.20
2022,04,16,17,04,6.20
2022,04,16,17,05,6.20
2022,04,16,17,06,6.20
2022,04,16,17,07,6.20
2022,04,16,17,08,6.20
2022,04,16,17,09,6.20
2022,04,16,17,10,6.20
2022,04,16,17,11,6.20
2022,04,16,17,12,6.20
2022,04,16,17,13,6.30
2022,04,16,17,14,6.30
2022,04,16,17,15,6.30
2022,04,16,17,16,6.30
2022,04,16,17,17,6.30
2022,04,16,17,18,6.30
2022,04,16,17,19,6.30
2022,04,16,17,20,6.30
2022,04,16,17,21,6.30
2022,04,16,17,22,6.30
2022,04,16,17,23,6.30
2022,04,16,17,24,6.40
2022,04,16,17,25,6.40
2022,04,16,17,26,6.50
2022,04,16,17,27,6.50
2022,04,16,17,28,6.50
2022,04,16,17,29,6.60
2022,04,16,17,30,6.60
2022,04,16,17,31,6.70
2022,04,16,17,32,6.70
2022,04,16,17,33,6.80
2022,04,16,17,34,6.80
2022,04,16,17,35,6.90
2022,04,16,17,36,7.00
2022,04,16,17,37,7.00
2022,04,16,17,38,7.00
2022,04,16,17,39,7.10
2022,04,16,17,40,7.10
2022,04,16,17,41,7.10
2022,04,16,17,42,7.20
2022,04,16,17,43,7.20
2022,04,16,17,44,7.20
2022,04,16,17,45,7.20
2022,04,16,17,46,7.20
2022,04,16,17,47,7.20
2022,04,16,17,48,7.20
2022,04,16,17,49,7.20
2022,04,16,17,50,7.20
2022,04,16,17,51,7.20
2022,04,16,17,52,7.20
2022,04,16,17,53,7.20
2022,04,16,17,54,7.20
2022,04,16,17,55,7.30
2022,04,16,17,56,7.30
2022,04,16,17,57,7.30
2022,04,16,17,58,7.30
2022,04,16,17,59,7.40
2022,04,16,18,00,7.40
2022,04,16,18,01,7.40
2022,04,16,18,02,7.40
2022,04,16,18,03,7.40
2022,04,16,18,04,7.40
2022,04,16,18,05,7.40
2022,04,16,18,06,7.40
2022,04,16,18,07,7.50
2022,04,16,18,08,7.50
2022,04,16,18,09,7.50
2022,04,16,18,10,7.60
2022,04,16,18,11,7.60
2022,04,16,18,12,7.50
2022,04,16,18,13,7.50
2022,04,16,18,14,7.50
2022,04,16,18,15,7.50
2022,04,16,18,16,7.50
2022,04,16,18,17,7.50
2022,04,16,18,18,7.50
2022,04,16,18,19,7.50
2022,04,16,18,20,7.40
2022,04,16,18,21,7.40
2022,04,16,18,22,7.40
2022,04,16,18,23,7.40
2022,04,16,18,24,7.40
2022,04,16,18,25,7.40
2022,04,16,18,26,7.30
2022,04,16,18,27,7.30
2022,04,16,18,28,7.30
2022,04,16,18,29,7.30
2022,04,16,18,30,7.30
2022,04,16,18,31,7.30
2022,04,16,18,32,7.20
2022,04,16,18,33,7.20
2022,04,16,18,34,7.10
2022,04,16,18,35,7.10
2022,04,16,18,36,7.00
2022,04,16,18,37,7.00
2022,04,16,18,38,7.00
2022,04,16,18,39,7.10
2022,04,16,18,40,7.10
2022,04,16,18,41,7.10
2022,04,16,18,42,7.10
2022,04,16,18,43,7.10
2022,04,16,18,44,7.10
2022,04,16,18,45,7.10
2022,04,16,18,46,7.10
2022,04,16,18,47,7.10
2022,04,16,18,48,7.10
2022,04,16,18,49,7.10
2022,04,16,18,50,7.10
2022,04,16,18,51,7.10
2022,04,16,18,52,7.10
2022,04,16,18,53,7.00
2022,04,16,18,54,7.00
2022,04,16,18,55,6.90
2022,04,16,18,56,6.90
2022,04,16,18,57,6.90
2022,04,16,18,58,6.90
2022,04,16,18,59,6.90
2022,04,16,19,00,6.90
2022,04,16,19,01,6.90
2022,04,16,19,02,6.90
2022,04,16,19,03,6.90
2022,04,16,19,04,6.90
2022,04,16,19,05,6.80
2022,04,16,19,06,6.80
2022,04,16,19,07,6.80
2022,04,16,19,08,6.80
2022,04,16,19,09,6.70
2022,04,16,19,10,6.70
2022,04,16,19,11,6.70
2022,04,16,19,12,6.60
2022,04,16,19,13,6.60
2022,04,16,19,14,6.60
2022,04,16,19,15,6.60
2022,04,16,19,16,6.50
2022,04,16,19,17,6.50
2022,04,16,19,18,6.50
2022,04,16,19,19,6.40
2022,04,16,19,20,6.40
2022,04,16,19,21,6.30
2022,04,16,19,22,6.30
2022,04,16,19,23,6.30
2022,04,16,19,24,6.20
2022,04,16,19,25,6.20
2022,04,16,19,26,6.20
2022,04,16,19,27,6.20
2022,04,16,19,28,6.10
2022,04,16,19,29,6.10
2022,04,16,19,30,6.10
2022,04,16,19,31,6.10
2022,04,16,19,32,6.00
2022,04,16,19,33,6.00
2022,04,16,19,34,6.00
2022,04,16,19,35,5.90
2022,04,16,19,36,5.90
2022,04,16,19,37,5.90
2022,04,16,19,38,5.90
2022,04,16,19,39,5.90
2022,04,16,19,40,5.80
2022,04,16,19,41,5.80
2022,04,16,19,42,5.80
2022,04,16,19,43,5.80
2022,04,16,19,44,5.80
2022,04,16,19,45,5.80
2022,04,16,19,46,5.80
2022,04,16,19,47,5.80
2022,04,16,19,48,5.80
2022,04,16,19,49,5.70
2022,04,16,19,50,5.70
2022,04,16,19,51,5.70
2022,04,16,19,52,5.70
2022,04,16,19,53,5.70
2022,04,16,19,54,5.70
2022,04,16,19,55,5.70
2022,04,16,19,56,5.70
2022,04,16,19,57,5.70
2022,04,16,19,58,5.70
2022,04,16,19,59,5.70
2022,04,16,20,00,5.70
2022,04,16,20,01,5.70
2022,04,16,20,02,5.70
2022,04,16,20,03,5.70
2022,04,16,20,04,5.70
2022,04,16,20,05,5.70
2022,04,16,20,06,5.70
2022,04,16,20,07,5.70
2022,04,16,20,08,5.70
2022,04,16,20,09,5.70
2022,04,16,20,10,5.70
2022,04,16,20,11,5.60
2022,04,16,20,12,5.60
2022,04,16,20,13,5.60
2022,04,16,20,14,5.60
2022,04,16,20,15,5.60
2022,04,16,20,16,5.60
2022,04,16,20,17,5.50
2022,04,16,20,18,5.50
2022,04,16,20,19,5.50
2022,04,16,20,20,5.40
2022,04,16,20,21,5.40
2022,04,16,20,22,5.40
2022,04,16,20,23,5.30
2022,04,16,20,24,5.30
2022,04,16,20,25,5.30
2022,04,16,20,26,5.20
2022,04,16,20,27,5.20
2022,04,16,20,28,5.20
2022,04,16,20,29,5.20
2022,04,16,20,30,5.20
2022,04,16,20,31,5.20
2022,04,16,20,32,5.20
2022,04,16,20,33,5.20
2022,04,16,20,34,5.10
2022,04,16,20,35,5.10
2022,04,16,20,36,5.10
2022,04,16,20,37,5.10
2022,04,16,20,38,5.10
2022,04,16,20,39,5.00
2022,04,16,20,40,5.00
2022,04,16,20,41,4.90
2022,04,16,20,42,4.90
2022,04,16,20,43,4.90
2022,04,16,20,44,4.90
2022,04,16,20,45,4.90
2022,04,16,20,46,4.90
2022,04,16,20,47,4.90
2022,04,16,20,48,4.90
2022,04,16,20,49,4.90
2022,04,16,20,50,4.80
2022,04,16,20,51,4.80
2022,04,16,20,52,4.80
2022,04,16,20,53,4.80
2022,04,16,20,54,4.80
2022,04,16,20,55,4.80
2022,04,16,20,56,4.70
2022,04,16,20,57,4.70
2022,04,16,20,58,4.70
2022,04,16,20,59,4.70
2022,04,16,21,00,4.70
2022,04,16,21,01,4.70
2022,04,16,21,02,4.70
2022,04,16,21,03,4.60
2022,04,16,21,04,4.60
2022,04,16,21,05,4.60
2022,04,16,21,06,4.60
2022,04,16,21,07,4.50
2022,04,16,21,08,4.50
2022,04,16,21,09,4.50
2022,04,16,21,10,4.50
2022,04,16,21,11,4.50
2022,04,16,21,12,4.50
2022,04,16,21,13,4.50
2022,04,16,21,14,4.50
2022,04,16,21,15,4.50
2022,04,16,21,16,4.40
2022,04,16,21,17,4.40
2022,04,16,21,18,4.40
2022,04,16,21,19,4.40
2022,04,16,21,20,4.40
2022,04,16,21,21,4.40
2022,04,16,21,22,4.30
2022,04,16,21,23,4.30
2022,04,16,21,24,4.30
2022,04,16,21,25,4.30
2022,04,16,21,26,4.30
2022,04,16,21,27,4.30
2022,04,16,21,28,4.40
2022,04,16,21,29,4.40
2022,04,16,21,30,4.40
2022,04,16,21,31,4.40
2022,04,16,21,32,4.40
2022,04,16,21,33,4.40
2022,04,16,21,34,4.40
2022,04,16,21,35,4.40
2022,04,16,21,36,4.40
2022,04,16,21,37,4.30
2022,04,16,21,38,4.30
2022,04,16,21,39,4.30
2022,04,16,21,40,4.30
2022,04,16,21,41,4.20
2022,04,16,21,42,4.20
2022,04,16,21,43,4.20
2022,04,16,21,44,4.20
2022,04,16,21,45,4.20
2022,04,16,21,46,4.20
2022,04,16,21,47,4.20
2022,04,16,21,48,4.20
2022,04,16,21,49,4.20
2022,04,16,21,50,4.20
2022,04,16,21,51,4.20
2022,04,16,21,52,4.20
2022,04,16,21,53,4.20
2022,04,16,21,54,4.20
2022,04,16,21,55,4.20
2022,04,16,21,56,4.20
2022,04,16,21,57,4.20
2022,04,16,21,58,4.20
2022,04,16,21,59,4.20
2022,04,16,22,00,4.20
2022,04,16,22,01,4.20
2022,04,16,22,02,4.10